DLH5MM EDDM-EIDW

Flight info

Callsign DLH5MM
Flight time 2h 2m
Altitude 36000
Route INPUD2N INPUD Y102 ALIBU DCT MASEK DCT MAPOX DCT OTMEC DCT RAVLO Y70 OTBED L60 PENIL UL28 LELDO M145 BAGSO BAGSO4L
Aircraft A319/M-SDE2E3FGIJ1LORWXY/HB1

Departure

Time 2026-05-05 14:49
Airport Munich Airport (EDDM)

Arrival

Time 2026-05-05 16:51
Airport Dublin Airport (EIDW)
Time Latitude Longitude Altitude Speed Heading
2026-05-05 14:16 48.35507 11.79997 1486 ft 0 kts 263°
2026-05-05 14:37 48.35507 11.79998 1485 ft 0 kts 263°
2026-05-05 14:37 48.35509 11.80031 1483 ft 4 kts 263°
2026-05-05 14:37 48.35512 11.80064 1477 ft 3 kts 264°
2026-05-05 14:38 48.35510 11.80102 1477 ft 4 kts 296°
2026-05-05 14:38 48.35494 11.80126 1471 ft 3 kts 352°
2026-05-05 14:38 48.35475 11.80129 1475 ft 0 kts 353°
2026-05-05 14:41 48.35476 11.80129 1485 ft 0 kts 353°
2026-05-05 14:41 48.35486 11.80127 1485 ft 3 kts 353°
2026-05-05 14:41 48.35524 11.80120 1485 ft 8 kts 353°
2026-05-05 14:41 48.35590 11.80109 1475 ft 11 kts 353°
2026-05-05 14:42 48.35669 11.80096 1485 ft 12 kts 353°
2026-05-05 14:42 48.35750 11.80071 1485 ft 12 kts 354°
2026-05-05 14:42 48.35825 11.80025 1485 ft 12 kts 297°
2026-05-05 14:42 48.35821 11.79897 1485 ft 13 kts 263°
2026-05-05 14:43 48.35811 11.79761 1485 ft 13 kts 264°
2026-05-05 14:43 48.35801 11.79619 1485 ft 14 kts 264°
2026-05-05 14:43 48.35847 11.79521 1475 ft 14 kts 353°
2026-05-05 14:43 48.35944 11.79505 1485 ft 14 kts 353°
2026-05-05 14:44 48.36043 11.79488 1479 ft 15 kts 353°
2026-05-05 14:44 48.36146 11.79470 1485 ft 15 kts 353°
2026-05-05 14:44 48.36220 11.79546 1485 ft 15 kts 83°
2026-05-05 14:44 48.36232 11.79702 1485 ft 15 kts 83°
2026-05-05 14:45 48.36244 11.79860 1485 ft 15 kts 83°
2026-05-05 14:45 48.36256 11.80020 1485 ft 15 kts 83°
2026-05-05 14:45 48.36268 11.80181 1481 ft 16 kts 83°
2026-05-05 14:45 48.36281 11.80344 1477 ft 16 kts 83°
2026-05-05 14:46 48.36294 11.80510 1473 ft 17 kts 83°
2026-05-05 14:46 48.36308 11.80696 1485 ft 19 kts 83°
2026-05-05 14:46 48.36323 11.80895 1479 ft 19 kts 83°
2026-05-05 14:46 48.36339 11.81094 1477 ft 19 kts 83°
2026-05-05 14:47 48.36388 11.81215 1485 ft 13 kts 358°
2026-05-05 14:47 48.36439 11.81113 1477 ft 13 kts 293°
2026-05-05 14:47 48.36475 11.80985 1476 ft 14 kts 293°
2026-05-05 14:47 48.36514 11.80852 1477 ft 14 kts 294°
2026-05-05 14:48 48.36554 11.80713 1473 ft 15 kts 294°
2026-05-05 14:48 48.36569 11.80560 1485 ft 17 kts 263°
2026-05-05 14:48 48.36534 11.80109 1485 ft 79 kts 263°
2026-05-05 14:48 48.36446 11.78952 1486 ft 141 kts 263°
2026-05-05 14:49 48.36329 11.77362 1857 ft 154 kts 264°
2026-05-05 14:49 48.36255 11.76300 2292 ft 155 kts 264°
2026-05-05 14:49 48.36139 11.74679 2909 ft 160 kts 263°
2026-05-05 14:49 48.36006 11.72900 3275 ft 182 kts 263°
2026-05-05 14:50 48.35853 11.70884 3604 ft 206 kts 263°
2026-05-05 14:50 48.35695 11.68635 4068 ft 226 kts 267°
2026-05-05 14:50 48.36131 11.66367 4862 ft 235 kts 306°
2026-05-05 14:50 48.37482 11.64813 5336 ft 261 kts 337°
2026-05-05 14:51 48.39282 11.64101 6086 ft 273 kts 350°
2026-05-05 14:51 48.41186 11.63722 6967 ft 279 kts 353°
2026-05-05 14:51 48.43136 11.63402 7837 ft 285 kts 353°
2026-05-05 14:51 48.45129 11.63031 8682 ft 291 kts 352°
2026-05-05 14:52 48.47155 11.62579 9559 ft 297 kts 350°
2026-05-05 14:52 48.49205 11.62052 10447 ft 302 kts 349°
2026-05-05 14:52 48.51295 11.61466 11269 ft 308 kts 348°
2026-05-05 14:52 48.53426 11.60841 12104 ft 315 kts 348°
2026-05-05 14:53 48.55589 11.60195 12956 ft 318 kts 348°
2026-05-05 14:53 48.57746 11.59353 13714 ft 324 kts 340°
2026-05-05 14:53 48.59932 11.58113 13931 ft 347 kts 338°
2026-05-05 14:53 48.62229 11.56779 14384 ft 359 kts 338°
2026-05-05 14:54 48.64580 11.55405 15010 ft 365 kts 338°
2026-05-05 14:54 48.66959 11.54013 15696 ft 368 kts 337°
2026-05-05 14:54 48.69363 11.52611 16368 ft 372 kts 337°
2026-05-05 14:54 48.71791 11.51204 17027 ft 377 kts 337°
2026-05-05 14:55 48.74294 11.49943 17668 ft 383 kts 347°
2026-05-05 14:55 48.76930 11.49488 18269 ft 389 kts 354°
2026-05-05 14:55 48.79644 11.49172 18848 ft 393 kts 354°
2026-05-05 14:55 48.82384 11.48861 19437 ft 396 kts 354°
2026-05-05 14:56 48.85142 11.48548 20035 ft 400 kts 354°
2026-05-05 14:56 48.87928 11.48231 20639 ft 403 kts 354°
2026-05-05 14:56 48.90738 11.47904 21219 ft 407 kts 354°
2026-05-05 14:56 48.93571 11.47571 21804 ft 410 kts 354°
2026-05-05 14:57 48.96415 11.47093 22385 ft 413 kts 347°
2026-05-05 14:57 48.99217 11.46071 22946 ft 415 kts 345°
2026-05-05 14:57 49.02032 11.44980 23561 ft 419 kts 345°
2026-05-05 14:57 49.04848 11.43766 24072 ft 422 kts 338°
2026-05-05 14:58 49.07563 11.42027 24543 ft 424 kts 334°
2026-05-05 14:58 49.10272 11.40216 24999 ft 427 kts 334°
2026-05-05 14:58 49.12985 11.38321 25484 ft 430 kts 330°
2026-05-05 14:58 49.15640 11.36181 26005 ft 433 kts 329°
2026-05-05 14:59 49.18290 11.33957 26468 ft 436 kts 328°
2026-05-05 14:59 49.20940 11.31677 26901 ft 438 kts 328°
2026-05-05 14:59 49.23595 11.29374 27345 ft 440 kts 328°
2026-05-05 14:59 49.26266 11.27060 27767 ft 442 kts 328°
2026-05-05 15:00 49.28952 11.24741 28171 ft 445 kts 328°
2026-05-05 15:00 49.30745 11.23201 28450 ft 447 kts 328°
2026-05-05 15:00 49.34394 11.20082 28998 ft 451 kts 328°
2026-05-05 15:00 49.37146 11.17732 29386 ft 455 kts 328°
2026-05-05 15:01 49.39927 11.15357 29707 ft 460 kts 328°
2026-05-05 15:01 49.42694 11.12989 30022 ft 463 kts 328°
2026-05-05 15:01 49.45514 11.10572 30367 ft 465 kts 328°
2026-05-05 15:01 49.48345 11.08137 30706 ft 467 kts 327°
2026-05-05 15:02 49.51180 11.05691 31046 ft 469 kts 327°
2026-05-05 15:02 49.54026 11.03211 31378 ft 471 kts 327°
2026-05-05 15:02 49.56842 11.00646 31813 ft 469 kts 325°
2026-05-05 15:02 49.59619 10.98024 32297 ft 467 kts 324°
2026-05-05 15:03 49.62371 10.95376 32776 ft 465 kts 324°
2026-05-05 15:03 49.65113 10.92732 33253 ft 464 kts 324°
2026-05-05 15:03 49.67851 10.90107 33734 ft 463 kts 324°
2026-05-05 15:03 49.70583 10.87507 34240 ft 459 kts 324°
2026-05-05 15:04 49.73299 10.84933 34686 ft 457 kts 324°
2026-05-05 15:04 49.76003 10.82377 35069 ft 456 kts 324°
2026-05-05 15:04 49.78713 10.79819 35443 ft 455 kts 324°
2026-05-05 15:04 49.81410 10.77269 35800 ft 454 kts 324°
2026-05-05 15:05 49.86773 10.72172 36542 ft 452 kts 324°
2026-05-05 15:05 49.89448 10.69619 36931 ft 450 kts 324°
2026-05-05 15:05 49.92111 10.67069 37263 ft 449 kts 324°
2026-05-05 15:06 49.94767 10.64520 37595 ft 448 kts 324°
2026-05-05 15:06 49.97420 10.61977 37780 ft 448 kts 324°
2026-05-05 15:06 50.00066 10.59443 37805 ft 446 kts 324°
2026-05-05 15:07 50.05339 10.54387 37825 ft 445 kts 324°
2026-05-05 15:07 50.10600 10.49311 37803 ft 446 kts 324°
2026-05-05 15:08 50.15874 10.44220 37808 ft 446 kts 324°
2026-05-05 15:08 50.21141 10.39094 37811 ft 446 kts 324°
2026-05-05 15:09 50.26415 10.33986 37816 ft 446 kts 324°
2026-05-05 15:09 50.31696 10.28889 37817 ft 446 kts 324°
2026-05-05 15:10 50.36904 10.23640 37824 ft 442 kts 317°
2026-05-05 15:10 50.41184 10.16894 37830 ft 436 kts 307°
2026-05-05 15:11 50.45179 10.09762 37829 ft 435 kts 307°
2026-05-05 15:11 50.49181 10.02626 37820 ft 435 kts 307°
2026-05-05 15:12 50.53174 9.95488 37815 ft 435 kts 306°
2026-05-05 15:12 50.57160 9.88340 37811 ft 435 kts 306°
2026-05-05 15:13 50.61143 9.81182 37834 ft 435 kts 306°
2026-05-05 15:13 50.65115 9.74007 37825 ft 435 kts 306°
2026-05-05 15:14 50.69091 9.66801 37815 ft 436 kts 306°
2026-05-05 15:14 50.73064 9.59579 37818 ft 436 kts 306°
2026-05-05 15:15 50.76961 9.52256 37816 ft 435 kts 305°
2026-05-05 15:15 50.80779 9.44838 37821 ft 435 kts 304°
2026-05-05 15:16 50.84601 9.37421 37836 ft 435 kts 304°
2026-05-05 15:16 50.88439 9.30019 37813 ft 436 kts 305°
2026-05-05 15:17 50.92285 9.22582 37803 ft 436 kts 304°
2026-05-05 15:17 50.96123 9.15141 37802 ft 436 kts 304°
2026-05-05 15:18 50.99959 9.07672 37809 ft 436 kts 304°
2026-05-05 15:18 51.03758 9.00236 37810 ft 436 kts 304°
2026-05-05 15:19 51.07587 8.92753 37817 ft 436 kts 304°
2026-05-05 15:19 51.11406 8.85251 37820 ft 436 kts 304°
2026-05-05 15:20 51.14734 8.77296 37818 ft 429 kts 292°
2026-05-05 15:20 51.17512 8.68892 37825 ft 429 kts 293°
2026-05-05 15:21 51.20296 8.60466 37826 ft 430 kts 292°
2026-05-05 15:21 51.23070 8.52019 37852 ft 430 kts 293°
2026-05-05 15:22 51.25842 8.43558 37834 ft 430 kts 293°
2026-05-05 15:22 51.28611 8.35085 37856 ft 430 kts 292°
2026-05-05 15:23 51.31368 8.26622 37854 ft 429 kts 292°
2026-05-05 15:23 51.34113 8.18154 37858 ft 428 kts 292°
2026-05-05 15:24 51.36838 8.09685 37869 ft 428 kts 292°
2026-05-05 15:24 51.39558 8.01269 37873 ft 428 kts 292°
2026-05-05 15:25 51.42301 7.92791 37862 ft 429 kts 292°
2026-05-05 15:25 51.45028 7.84294 37864 ft 429 kts 292°
2026-05-05 15:26 51.47736 7.75792 37869 ft 428 kts 292°
2026-05-05 15:26 51.50435 7.67265 37882 ft 429 kts 292°
2026-05-05 15:27 51.53129 7.58724 37874 ft 429 kts 292°
2026-05-05 15:27 51.55822 7.50185 37869 ft 429 kts 292°
2026-05-05 15:28 51.58515 7.41626 37883 ft 429 kts 292°
2026-05-05 15:28 51.61208 7.33071 37896 ft 428 kts 292°
2026-05-05 15:29 51.63888 7.24520 37912 ft 427 kts 292°
2026-05-05 15:29 51.66545 7.15979 37905 ft 426 kts 292°
2026-05-05 15:30 51.69191 7.07434 37904 ft 426 kts 292°
2026-05-05 15:30 51.71826 6.98896 37898 ft 425 kts 292°
2026-05-05 15:31 51.74453 6.90362 37897 ft 424 kts 292°
2026-05-05 15:31 51.77074 6.81836 37889 ft 424 kts 292°
2026-05-05 15:32 51.79682 6.73307 37893 ft 424 kts 292°
2026-05-05 15:32 51.82296 6.64723 37899 ft 425 kts 292°
2026-05-05 15:33 51.84898 6.56153 37889 ft 425 kts 292°
2026-05-05 15:33 51.87485 6.47619 37903 ft 425 kts 292°
2026-05-05 15:34 51.90079 6.39033 37909 ft 424 kts 292°
2026-05-05 15:34 51.92658 6.30454 37919 ft 424 kts 292°
2026-05-05 15:35 51.95248 6.21795 37907 ft 424 kts 292°
2026-05-05 15:35 51.97798 6.13234 37908 ft 424 kts 292°
2026-05-05 15:36 52.00356 6.04597 37896 ft 425 kts 292°
2026-05-05 15:36 52.02918 5.95949 37895 ft 425 kts 292°
2026-05-05 15:37 52.05474 5.87285 37938 ft 425 kts 292°
2026-05-05 15:37 52.08073 5.78650 37926 ft 426 kts 294°
2026-05-05 15:38 52.10425 5.71591 37922 ft 427 kts 296°
2026-05-05 15:38 52.13326 5.63149 37918 ft 427 kts 296°
2026-05-05 15:39 52.16185 5.54672 37919 ft 427 kts 295°
2026-05-05 15:39 52.18993 5.46162 37922 ft 426 kts 295°
2026-05-05 15:40 52.21780 5.37653 37928 ft 426 kts 295°
2026-05-05 15:40 52.24569 5.29123 37920 ft 426 kts 295°
2026-05-05 15:41 52.27359 5.20581 37918 ft 426 kts 295°
2026-05-05 15:41 52.30144 5.12023 37923 ft 427 kts 295°
2026-05-05 15:42 52.32921 5.03458 37925 ft 427 kts 295°
2026-05-05 15:42 52.35700 4.94868 37939 ft 427 kts 295°
2026-05-05 15:43 52.38457 4.86317 37936 ft 428 kts 295°
2026-05-05 15:43 52.41229 4.77692 37932 ft 428 kts 295°
2026-05-05 15:44 52.44001 4.69061 37943 ft 428 kts 295°
2026-05-05 15:44 52.46753 4.60414 37936 ft 428 kts 294°
2026-05-05 15:45 52.49494 4.51754 37936 ft 428 kts 294°
2026-05-05 15:45 52.52231 4.43084 37932 ft 428 kts 294°
2026-05-05 15:46 52.54967 4.34416 37939 ft 428 kts 294°
2026-05-05 15:46 52.57704 4.25726 37936 ft 428 kts 294°
2026-05-05 15:47 52.60429 4.17039 37946 ft 427 kts 294°
2026-05-05 15:47 52.63147 4.08339 37941 ft 427 kts 294°
2026-05-05 15:48 52.65849 3.99630 37961 ft 427 kts 294°
2026-05-05 15:48 52.68527 3.90954 37944 ft 428 kts 294°
2026-05-05 15:49 52.71228 3.82205 37956 ft 428 kts 294°
2026-05-05 15:49 52.73923 3.73452 37973 ft 428 kts 294°
2026-05-05 15:50 52.76611 3.64695 37968 ft 427 kts 294°
2026-05-05 15:50 52.79290 3.55933 37975 ft 427 kts 294°
2026-05-05 15:51 52.81961 3.47168 37998 ft 427 kts 294°
2026-05-05 15:51 52.84617 3.38411 37994 ft 426 kts 294°
2026-05-05 15:52 52.87260 3.29640 37993 ft 426 kts 294°
2026-05-05 15:52 52.89893 3.20862 37986 ft 426 kts 294°
2026-05-05 15:53 52.92103 3.11836 37990 ft 421 kts 280°
2026-05-05 15:53 52.93348 3.02372 37991 ft 420 kts 280°
2026-05-05 15:54 52.94598 2.92905 37986 ft 420 kts 280°
2026-05-05 15:54 52.95846 2.83434 37982 ft 420 kts 280°
2026-05-05 15:55 52.97080 2.73968 37980 ft 420 kts 280°
2026-05-05 15:55 52.98296 2.64485 37991 ft 420 kts 280°
2026-05-05 15:56 52.99508 2.55006 37994 ft 420 kts 280°
2026-05-05 15:56 53.00712 2.45528 37991 ft 419 kts 280°
2026-05-05 15:57 53.01905 2.36110 37984 ft 419 kts 280°
2026-05-05 15:57 53.03100 2.26633 37979 ft 419 kts 279°
2026-05-05 15:58 53.04284 2.17142 37976 ft 419 kts 279°
2026-05-05 15:58 53.05459 2.07645 37975 ft 419 kts 279°
2026-05-05 15:59 53.06628 1.98141 37979 ft 420 kts 279°
2026-05-05 15:59 53.07788 1.88624 37976 ft 420 kts 279°
2026-05-05 16:00 53.08941 1.79095 37975 ft 420 kts 279°
2026-05-05 16:00 53.10087 1.69556 37981 ft 420 kts 279°
2026-05-05 16:01 53.11232 1.60021 37981 ft 421 kts 279°
2026-05-05 16:01 53.12372 1.50467 37989 ft 421 kts 279°
2026-05-05 16:02 53.13495 1.40900 37987 ft 421 kts 279°
2026-05-05 16:02 53.14611 1.31323 37987 ft 421 kts 279°
2026-05-05 16:03 53.15725 1.21738 37990 ft 421 kts 279°
2026-05-05 16:03 53.16834 1.12159 37992 ft 421 kts 279°
2026-05-05 16:04 53.17930 1.02559 37993 ft 422 kts 279°
2026-05-05 16:04 53.19014 0.93017 38008 ft 422 kts 279°
2026-05-05 16:05 53.20099 0.83402 38004 ft 422 kts 279°
2026-05-05 16:05 53.21173 0.73779 38010 ft 422 kts 279°
2026-05-05 16:06 53.22234 0.64150 38009 ft 422 kts 279°
2026-05-05 16:06 53.23293 0.54520 38012 ft 422 kts 279°
2026-05-05 16:07 53.24345 0.44897 38011 ft 422 kts 279°
2026-05-05 16:07 53.25396 0.35252 38031 ft 422 kts 279°
2026-05-05 16:08 53.26433 0.25626 38029 ft 421 kts 279°
2026-05-05 16:08 53.27460 0.15994 38020 ft 421 kts 279°
2026-05-05 16:09 53.28474 0.06360 38020 ft 421 kts 278°
2026-05-05 16:09 53.29483 -0.03269 38024 ft 421 kts 279°
2026-05-05 16:10 53.30482 -0.12904 38018 ft 421 kts 279°
2026-05-05 16:10 53.31470 -0.22474 38015 ft 421 kts 278°
2026-05-05 16:11 53.32456 -0.32112 38015 ft 420 kts 278°
2026-05-05 16:12 53.34405 -0.51461 38008 ft 421 kts 278°
2026-05-05 16:13 53.36788 -0.75532 38012 ft 421 kts 278°
2026-05-05 16:13 53.37733 -0.85197 38009 ft 420 kts 278°
2026-05-05 16:14 53.39595 -1.04526 38015 ft 420 kts 278°
2026-05-05 16:15 53.41432 -1.23870 38016 ft 420 kts 278°
2026-05-05 16:16 53.43229 -1.43220 38015 ft 420 kts 278°
2026-05-05 16:17 53.44554 -1.57751 38026 ft 420 kts 278°
2026-05-05 16:18 53.45866 -1.72291 38024 ft 420 kts 278°
2026-05-05 16:19 53.47163 -1.86855 38024 ft 420 kts 278°
2026-05-05 16:19 53.48441 -2.01417 38024 ft 421 kts 278°
2026-05-05 16:20 53.50109 -2.20864 38030 ft 421 kts 278°
2026-05-05 16:22 53.52159 -2.45182 38034 ft 421 kts 277°
2026-05-05 16:23 53.53755 -2.64647 38046 ft 420 kts 277°
2026-05-05 16:23 53.54937 -2.79214 38055 ft 419 kts 277°
2026-05-05 16:24 53.55719 -2.88916 37714 ft 418 kts 277°
2026-05-05 16:24 53.56483 -2.98553 37108 ft 411 kts 277°
2026-05-05 16:25 53.56854 -3.03286 36650 ft 407 kts 277°
2026-05-05 16:25 53.57571 -3.12590 35726 ft 400 kts 276°
2026-05-05 16:25 53.57927 -3.17223 35258 ft 398 kts 276°
2026-05-05 16:26 53.58520 -3.24916 34468 ft 394 kts 276°
2026-05-05 16:26 53.59216 -3.34021 33489 ft 389 kts 276°
2026-05-05 16:27 53.59557 -3.38516 33051 ft 385 kts 276°
2026-05-05 16:27 53.59891 -3.42969 32571 ft 382 kts 276°
2026-05-05 16:27 53.60321 -3.48816 31975 ft 378 kts 276°
2026-05-05 16:27 53.60538 -3.51767 31679 ft 376 kts 276°
2026-05-05 16:28 53.60854 -3.56117 31247 ft 373 kts 276°
2026-05-05 16:28 53.61166 -3.60439 30808 ft 371 kts 276°
2026-05-05 16:28 53.61510 -3.64732 30367 ft 369 kts 279°
2026-05-05 16:28 53.62209 -3.68887 29908 ft 369 kts 289°
2026-05-05 16:29 53.63177 -3.72876 29472 ft 366 kts 290°
2026-05-05 16:29 53.64133 -3.76829 29050 ft 362 kts 290°
2026-05-05 16:29 53.65072 -3.80749 28646 ft 359 kts 290°
2026-05-05 16:29 53.65995 -3.84624 28250 ft 355 kts 290°
2026-05-05 16:30 53.66909 -3.88468 27852 ft 351 kts 289°
2026-05-05 16:30 53.67811 -3.92274 27472 ft 348 kts 289°
2026-05-05 16:30 53.68693 -3.95998 27052 ft 345 kts 289°
2026-05-05 16:30 53.69577 -3.99736 26641 ft 341 kts 289°
2026-05-05 16:31 53.70454 -4.03441 26226 ft 338 kts 289°
2026-05-05 16:31 53.71282 -4.07134 25809 ft 334 kts 284°
2026-05-05 16:31 53.71745 -4.10942 25391 ft 329 kts 274°
2026-05-05 16:31 53.71901 -4.14777 24977 ft 326 kts 272°
2026-05-05 16:32 53.72047 -4.18588 24545 ft 324 kts 272°
2026-05-05 16:32 53.72193 -4.22381 24114 ft 323 kts 272°
2026-05-05 16:32 53.72337 -4.26150 23688 ft 322 kts 272°
2026-05-05 16:32 53.72478 -4.29914 23208 ft 320 kts 272°
2026-05-05 16:33 53.72617 -4.33650 22780 ft 317 kts 272°
2026-05-05 16:33 53.72754 -4.37351 22368 ft 314 kts 272°
2026-05-05 16:33 53.72887 -4.41022 21961 ft 312 kts 272°
2026-05-05 16:33 53.73018 -4.44666 21558 ft 310 kts 272°
2026-05-05 16:34 53.73148 -4.48285 21163 ft 308 kts 272°
2026-05-05 16:34 53.73274 -4.51883 20771 ft 306 kts 273°
2026-05-05 16:34 53.73398 -4.55463 20381 ft 305 kts 273°
2026-05-05 16:34 53.73522 -4.59028 20001 ft 303 kts 273°
2026-05-05 16:35 53.73643 -4.62572 19615 ft 302 kts 273°
2026-05-05 16:35 53.73765 -4.66114 19229 ft 302 kts 273°
2026-05-05 16:35 53.73885 -4.69650 18842 ft 301 kts 273°
2026-05-05 16:35 53.74000 -4.73180 18463 ft 301 kts 273°
2026-05-05 16:36 53.74114 -4.76707 18044 ft 300 kts 273°
2026-05-05 16:36 53.74228 -4.80222 17662 ft 299 kts 274°
2026-05-05 16:36 53.74342 -4.83716 17286 ft 297 kts 274°
2026-05-05 16:36 53.74458 -4.87192 16924 ft 296 kts 274°
2026-05-05 16:37 53.74571 -4.90655 16556 ft 294 kts 274°
2026-05-05 16:37 53.74683 -4.94103 16199 ft 293 kts 274°
2026-05-05 16:37 53.74793 -4.97540 15847 ft 293 kts 274°
2026-05-05 16:37 53.74901 -5.00960 15505 ft 292 kts 274°
2026-05-05 16:38 53.75006 -5.04329 15162 ft 291 kts 274°
2026-05-05 16:38 53.75112 -5.07747 14811 ft 290 kts 274°
2026-05-05 16:38 53.75220 -5.11152 14452 ft 290 kts 274°
2026-05-05 16:38 53.75107 -5.14553 14110 ft 291 kts 261°
2026-05-05 16:39 53.74552 -5.17845 13746 ft 292 kts 253°
2026-05-05 16:39 53.73889 -5.21085 13367 ft 291 kts 253°
2026-05-05 16:39 53.73235 -5.24303 13015 ft 289 kts 253°
2026-05-05 16:39 53.72584 -5.27510 12660 ft 288 kts 253°
2026-05-05 16:40 53.71937 -5.30701 12305 ft 287 kts 253°
2026-05-05 16:40 53.71294 -5.33874 11950 ft 285 kts 253°
2026-05-05 16:40 53.70650 -5.37038 11582 ft 285 kts 253°
2026-05-05 16:40 53.70005 -5.40189 11214 ft 284 kts 252°
2026-05-05 16:41 53.69361 -5.43332 10809 ft 284 kts 252°
2026-05-05 16:41 53.68714 -5.46489 10408 ft 285 kts 252°
2026-05-05 16:41 53.67904 -5.49535 10030 ft 286 kts 240°
2026-05-05 16:41 53.66675 -5.52166 9635 ft 287 kts 226°
2026-05-05 16:42 53.65230 -5.54493 9256 ft 286 kts 225°
2026-05-05 16:42 53.63793 -5.56812 8883 ft 285 kts 226°
2026-05-05 16:42 53.62366 -5.59121 8518 ft 284 kts 226°
2026-05-05 16:42 53.60949 -5.61413 8160 ft 281 kts 226°
2026-05-05 16:43 53.59553 -5.63670 7826 ft 276 kts 226°
2026-05-05 16:43 53.58184 -5.65882 7546 ft 270 kts 226°
2026-05-05 16:43 53.56844 -5.68043 7268 ft 264 kts 226°
2026-05-05 16:43 53.55532 -5.70157 6995 ft 258 kts 226°
2026-05-05 16:44 53.54249 -5.72224 6726 ft 253 kts 227°
2026-05-05 16:44 53.52991 -5.74246 6452 ft 248 kts 227°
2026-05-05 16:44 53.51758 -5.76225 6165 ft 243 kts 227°
2026-05-05 16:44 53.50548 -5.78167 5876 ft 238 kts 227°
2026-05-05 16:45 53.49358 -5.80075 5589 ft 235 kts 227°
2026-05-05 16:45 53.48186 -5.81955 5307 ft 231 kts 227°
2026-05-05 16:45 53.47030 -5.83809 5042 ft 228 kts 227°
2026-05-05 16:45 53.45892 -5.85631 4781 ft 224 kts 227°
2026-05-05 16:46 53.44775 -5.87418 4513 ft 221 kts 227°
2026-05-05 16:46 53.43671 -5.89182 4269 ft 217 kts 227°
2026-05-05 16:46 53.42596 -5.90898 4039 ft 215 kts 227°
2026-05-05 16:46 53.41520 -5.92630 3829 ft 212 kts 230°
2026-05-05 16:47 53.40750 -5.94625 3727 ft 197 kts 252°
2026-05-05 16:47 53.40459 -5.96795 3586 ft 187 kts 273°
2026-05-05 16:47 53.40547 -5.98944 3376 ft 184 kts 280°
2026-05-05 16:47 53.40672 -6.01083 3131 ft 185 kts 280°
2026-05-05 16:48 53.40795 -6.03227 2881 ft 185 kts 279°
2026-05-05 16:48 53.40919 -6.05380 2626 ft 186 kts 279°
2026-05-05 16:48 53.41040 -6.07519 2408 ft 182 kts 279°
2026-05-05 16:48 53.41158 -6.09595 2123 ft 175 kts 279°
2026-05-05 16:49 53.41270 -6.11579 1884 ft 167 kts 278°
2026-05-05 16:49 53.41375 -6.13452 1659 ft 157 kts 279°
2026-05-05 16:49 53.41473 -6.15193 1461 ft 143 kts 279°
2026-05-05 16:49 53.41562 -6.16789 1254 ft 134 kts 279°
2026-05-05 16:50 53.41650 -6.18323 1052 ft 131 kts 279°
2026-05-05 16:50 53.41736 -6.19846 860 ft 133 kts 279°
2026-05-05 16:50 53.41821 -6.21401 668 ft 134 kts 279°
2026-05-05 16:50 53.41904 -6.22925 475 ft 129 kts 279°
2026-05-05 16:51 53.41991 -6.24436 330 ft 131 kts 279°
2026-05-05 16:51 53.42075 -6.25948 213 ft 123 kts 278°
2026-05-05 16:51 53.42141 -6.27156 209 ft 81 kts 275°
2026-05-05 16:51 53.42187 -6.27788 211 ft 34 kts 287°
2026-05-05 16:52 53.42263 -6.28029 214 ft 10 kts 301°
2026-05-05 16:52 53.42312 -6.28131 211 ft 12 kts 328°
2026-05-05 16:52 53.42363 -6.28058 211 ft 12 kts 90°
2026-05-05 16:52 53.42355 -6.27905 213 ft 14 kts 95°
2026-05-05 16:53 53.42345 -6.27736 215 ft 15 kts 95°
2026-05-05 16:53 53.42335 -6.27551 214 ft 17 kts 95°
2026-05-05 16:53 53.42324 -6.27351 211 ft 18 kts 95°
2026-05-05 16:53 53.42313 -6.27136 211 ft 19 kts 95°
2026-05-05 16:54 53.42300 -6.26909 211 ft 20 kts 95°
2026-05-05 16:54 53.42287 -6.26669 211 ft 21 kts 95°
2026-05-05 16:54 53.42273 -6.26421 215 ft 22 kts 96°
2026-05-05 16:54 53.42258 -6.26159 211 ft 22 kts 95°
2026-05-05 16:55 53.42288 -6.25933 214 ft 20 kts 57°
2026-05-05 16:55 53.42386 -6.25757 211 ft 21 kts 46°
2026-05-05 16:55 53.42490 -6.25579 214 ft 22 kts 45°
2026-05-05 16:55 53.42599 -6.25391 214 ft 23 kts 45°
2026-05-05 16:56 53.42701 -6.25220 215 ft 18 kts 45°
2026-05-05 16:56 53.42772 -6.25090 215 ft 12 kts 64°
2026-05-05 16:56 53.42723 -6.24986 217 ft 13 kts 148°
2026-05-05 16:56 53.42662 -6.24906 216 ft 9 kts 111°
2026-05-05 16:57 53.42689 -6.24806 211 ft 10 kts 54°
2026-05-05 16:57 53.42699 -6.24740 211 ft 6 kts 123°
2026-05-05 16:57 53.42669 -6.24708 211 ft 3 kts 147°
2026-05-05 16:57 53.42662 -6.24700 211 ft 0 kts 147°